| time (UTC) | temp F | wind direction | speed knots | gust knots | rain 1hr in | rain 24hr in | rain mn in | humidity % | barometer mb |
| 20260905233108 | 70 | 63 | 0.9 | 3.5 | 0.00 | 0.00 | 0.00 | 40 | 1015.7 |
| 20260905231555 | 72 | 131 | 0.9 | 3.5 | 0.00 | 0.00 | 0.00 | 38 | 1015.8 |
| 20260905230051 | 73 | 140 | 1.7 | 3.5 | 0.00 | 0.00 | 0.00 | 34 | 1015.9 |
| 20260905224608 | 75 | 145 | 0.9 | 6.1 | 0.00 | 0.00 | 0.00 | 35 | 1015.8 |
| 20260905223053 | 75 | 68 | 0.0 | 3.5 | 0.00 | 0.00 | 0.00 | 37 | 1015.8 |
| 20260905221546 | 73 | 43 | 1.7 | 4.3 | 0.00 | 0.00 | 0.00 | 36 | 1015.8 |
| 20260905220049 | 73 | 240 | 1.7 | 6.1 | 0.00 | 0.00 | 0.00 | 37 | 1015.9 |
| 20260905214544 | 74 | 186 | 1.7 | 6.1 | 0.00 | 0.00 | 0.00 | 39 | 1016.0 |
| 20260905213043 | 74 | 196 | 0.9 | 3.5 | 0.00 | 0.00 | 0.00 | 37 | 1016.1 |
| 20260905211539 | 74 | 164 | 0.0 | 4.3 | 0.00 | 0.00 | 0.00 | 41 | 1016.1 |
| 20260905210036 | 72 | 178 | 1.7 | 7.0 | 0.00 | 0.00 | 0.00 | 44 | 1016.2 |
| 20260905204533 | 71 | 127 | 0.0 | 5.2 | 0.00 | 0.00 | 0.00 | 47 | 1016.2 |
| 20260905203031 | 70 | 257 | 2.6 | 7.0 | 0.00 | 0.00 | 0.00 | 48 | 1016.4 |
| 20260905201529 | 69 | 171 | 1.7 | 7.0 | 0.00 | 0.00 | 0.00 | 53 | 1016.6 |
| 20260905200027 | 69 | 181 | 0.9 | 6.1 | 0.00 | 0.00 | 0.00 | 56 | 1016.7 |
| 20260905194525 | 68 | 215 | 1.7 | 7.0 | 0.00 | 0.00 | 0.00 | 59 | 1016.8 |
| 20260905193023 | 68 | 260 | 1.7 | 6.1 | 0.00 | 0.00 | 0.00 | 59 | 1016.8 |
| 20260905191520 | 67 | 177 | 0.9 | 3.5 | 0.00 | 0.00 | 0.00 | 60 | 1016.9 |
| 20260905190017 | 66 | 155 | 0.9 | 4.3 | 0.00 | 0.00 | 0.00 | 62 | 1017.0 |
| 20260905184517 | 64 | 355 | 0.0 | 5.2 | 0.00 | 0.00 | 0.00 | 64 | 1017.1 |
| 20260905183012 | 64 | 165 | 0.9 | 2.6 | 0.00 | 0.00 | 0.00 | 65 | 1017.3 |
| 20260905181509 | 63 | 185 | 0.0 | 2.6 | 0.00 | 0.00 | 0.00 | 68 | 1017.4 |
| 20260905180004 | 62 | 62 | 0.0 | 3.5 | 0.00 | 0.00 | 0.00 | 69 | 1017.5 |
| 20260905174505 | 61 | 9 | 1.7 | 5.2 | 0.00 | 0.00 | 0.00 | 70 | 1017.5 |
| 20260905173059 | 60 | 227 | 0.0 | 2.6 | 0.00 | 0.00 | 0.00 | 73 | 1017.4 |
| 20260905171556 | 60 | 275 | 0.9 | 3.5 | 0.00 | 0.00 | 0.00 | 75 | 1017.5 |
| 20260905170055 | 58 | 60 | 0.0 | 2.6 | 0.00 | 0.00 | 0.00 | 75 | 1017.4 |
| 20260905164550 | 57 | 163 | 0.0 | 1.7 | 0.00 | 0.00 | 0.00 | 78 | 1017.3 |
| 20260905163046 | 56 | 344 | 0.0 | 1.7 | 0.00 | 0.00 | 0.00 | 80 | 1017.2 |
| 20260905161543 | 54 | 119 | 0.0 | 0.0 | 0.00 | 0.00 | 0.00 | 82 | 1017.2 |
| 20260905160042 | 54 | 131 | 0.0 | 0.0 | 0.00 | 0.00 | 0.00 | 82 | 1017.1 |
| 20260905154541 | 53 | 132 | 0.0 | 0.0 | 0.00 | 0.00 | 0.00 | 82 | 1017.1 |
| 20260905153040 | 52 | 132 | 0.0 | 0.0 | 0.00 | 0.00 | 0.00 | 82 | 1017.2 |
| 20260905151538 | 51 | 132 | 0.0 | 0.0 | 0.00 | 0.00 | 0.00 | 82 | 1017.0 |
| 20260905150038 | 50 | 132 | 0.0 | 0.0 | 0.00 | 0.00 | 0.00 | 81 | 1016.9 |
| 20260905144542 | 50 | 132 | 0.0 | 0.0 | 0.00 | 0.00 | 0.00 | 80 | 1016.9 |
| 20260905143035 | 49 | 132 | 0.0 | 0.0 | 0.00 | 0.00 | 0.00 | 80 | 1016.8 |
| 20260905141541 | 50 | 132 | 0.0 | 0.0 | 0.00 | 0.00 | 0.00 | 80 | 1016.7 |
| 20260905140033 | 50 | 132 | 0.0 | 0.0 | 0.00 | 0.00 | 0.00 | 80 | 1016.7 |
| 20260905134534 | 50 | 132 | 0.0 | 0.0 | 0.00 | 0.00 | 0.00 | 80 | 1016.6 |
| 20260905133030 | 50 | 132 | 0.0 | 0.0 | 0.00 | 0.00 | 0.00 | 80 | 1016.6 |
| 20260905131544 | 50 | 132 | 0.0 | 0.0 | 0.00 | 0.00 | 0.00 | 79 | 1016.6 |
| 20260905130030 | 50 | 132 | 0.0 | 0.0 | 0.00 | 0.00 | 0.00 | 79 | 1016.4 |
| 20260905124537 | 50 | 132 | 0.0 | 0.0 | 0.00 | 0.00 | 0.00 | 79 | 1016.3 |
| 20260905123025 | 50 | 132 | 0.0 | 0.0 | 0.00 | 0.00 | 0.00 | 78 | 1016.3 |
| 20260905121530 | 50 | 132 | 0.0 | 0.0 | 0.00 | 0.00 | 0.00 | 78 | 1016.4 |
| 20260905120022 | 50 | 132 | 0.0 | 0.0 | 0.00 | 0.00 | 0.00 | 77 | 1016.4 |
| 20260905114536 | 50 | 132 | 0.0 | 0.0 | 0.00 | 0.00 | 0.00 | 76 | 1016.2 |
| 20260905113120 | 51 | 132 | 0.0 | 0.0 | 0.00 | 0.00 | 0.00 | 76 | 1016.1 |
| 20260905111519 | 51 | 130 | 0.0 | 0.0 | 0.00 | 0.00 | 0.00 | 76 | 1016.1 |
| 20260905110018 | 51 | 120 | 0.0 | 0.0 | 0.00 | 0.00 | 0.00 | 75 | 1016.2 |
| 20260905104516 | 51 | 120 | 0.0 | 0.0 | 0.00 | 0.00 | 0.00 | 73 | 1016.1 |
| 20260905103025 | 51 | 120 | 0.0 | 0.0 | 0.00 | 0.00 | 0.00 | 73 | 1016.0 |
| 20260905101524 | 51 | 120 | 0.0 | 0.0 | 0.00 | 0.00 | 0.00 | 72 | 1016.1 |
| 20260905100014 | 51 | 120 | 0.0 | 0.0 | 0.00 | 0.00 | 0.00 | 71 | 1016.1 |
| 20260905094512 | 51 | 120 | 0.0 | 0.0 | 0.00 | 0.00 | 0.00 | 71 | 1016.0 |
| 20260905093010 | 51 | 120 | 0.0 | 0.0 | 0.00 | 0.00 | 0.00 | 70 | 1016.0 |
| 20260905091509 | 52 | 120 | 0.0 | 0.0 | 0.00 | 0.00 | 0.00 | 69 | 1016.0 |
| 20260905090007 | 52 | 120 | 0.0 | 0.0 | 0.00 | 0.00 | 0.00 | 69 | 1015.7 |
| 20260905084515 | 52 | 120 | 0.0 | 0.0 | 0.00 | 0.00 | 0.00 | 69 | 1015.7 |
| 20260905083003 | 52 | 119 | 0.0 | 0.0 | 0.00 | 0.00 | 0.00 | 68 | 1015.8 |
| 20260905081502 | 53 | 119 | 0.0 | 0.0 | 0.00 | 0.00 | 0.00 | 68 | 1015.8 |
| 20260905080100 | 53 | 119 | 0.0 | 0.0 | 0.00 | 0.00 | 0.00 | 68 | 1015.8 |
| 20260905074559 | 53 | 119 | 0.0 | 0.0 | 0.00 | 0.00 | 0.00 | 67 | 1015.7 |
| 20260905073055 | 54 | 119 | 0.0 | 0.0 | 0.00 | 0.00 | 0.00 | 67 | 1015.3 |
| 20260905071559 | 54 | 119 | 0.0 | 0.0 | 0.00 | 0.00 | 0.00 | 67 | 1015.3 |
| 20260905070058 | 55 | 94 | 0.0 | 0.0 | 0.00 | 0.00 | 0.00 | 67 | 1015.2 |
| 20260905064551 | 55 | 94 | 0.0 | 0.0 | 0.00 | 0.00 | 0.00 | 67 | 1015.2 |
| 20260905063054 | 55 | 94 | 0.0 | 0.0 | 0.00 | 0.00 | 0.00 | 67 | 1015.2 |
| 20260905061602 | 56 | 94 | 0.0 | 0.0 | 0.00 | 0.00 | 0.00 | 67 | 1015.2 |
| 20260905060050 | 56 | 94 | 0.0 | 0.0 | 0.00 | 0.00 | 0.00 | 66 | 1015.2 |
| 20260905054551 | 57 | 94 | 0.0 | 0.0 | 0.00 | 0.00 | 0.00 | 65 | 1015.3 |
| 20260905053056 | 57 | 93 | 0.0 | 0.0 | 0.00 | 0.00 | 0.00 | 65 | 1015.2 |
| 20260905051548 | 57 | 93 | 0.0 | 0.0 | 0.00 | 0.00 | 0.00 | 64 | 1015.2 |
| 20260905050048 | 58 | 93 | 0.0 | 0.0 | 0.00 | 0.00 | 0.00 | 64 | 1015.2 |
| 20260905044548 | 58 | 93 | 0.0 | 0.0 | 0.00 | 0.00 | 0.00 | 63 | 1015.3 |
| 20260905043147 | 58 | 94 | 0.0 | 0.0 | 0.00 | 0.00 | 0.00 | 62 | 1015.2 |
| 20260905041545 | 59 | 94 | 0.0 | 0.0 | 0.00 | 0.00 | 0.00 | 61 | 1015.1 |
| 20260905040045 | 59 | 94 | 0.0 | 0.0 | 0.00 | 0.00 | 0.00 | 60 | 1015.1 |
| 20260905034548 | 60 | 95 | 0.0 | 0.0 | 0.00 | 0.00 | 0.00 | 58 | 1014.9 |
| 20260905033042 | 60 | 233 | 0.0 | 0.0 | 0.00 | 0.00 | 0.00 | 57 | 1015.0 |
| 20260905031541 | 61 | 234 | 0.0 | 0.0 | 0.00 | 0.00 | 0.00 | 57 | 1014.8 |
| 20260905030041 | 61 | 161 | 0.0 | 2.6 | 0.00 | 0.00 | 0.00 | 56 | 1014.7 |
| 20260905024556 | 62 | 325 | 0.0 | 1.7 | 0.00 | 0.00 | 0.00 | 55 | 1014.6 |
| 20260905023043 | 63 | 295 | 0.0 | 2.6 | 0.00 | 0.00 | 0.00 | 54 | 1014.7 |
| 20260905021542 | 64 | 74 | 0.0 | 0.9 | 0.00 | 0.00 | 0.00 | 52 | 1014.7 |
| 20260905020044 | 64 | 85 | 0.0 | 2.6 | 0.00 | 0.00 | 0.00 | 50 | 1014.7 |
| 20260905014538 | 65 | 296 | 0.9 | 3.5 | 0.00 | 0.00 | 0.00 | 48 | 1014.6 |
| 20260905013034 | 66 | 288 | 0.9 | 3.5 | 0.00 | 0.00 | 0.00 | 47 | 1014.5 |
| 20260905011533 | 66 | 355 | 1.7 | 6.1 | 0.00 | 0.00 | 0.00 | 47 | 1014.2 |
| 20260905010032 | 66 | 348 | 0.0 | 4.3 | 0.00 | 0.00 | 0.00 | 46 | 1014.0 |
| 20260905004528 | 67 | 98 | 0.9 | 6.1 | 0.00 | 0.00 | 0.00 | 43 | 1013.7 |
| 20260905003027 | 68 | 153 | 0.9 | 7.0 | 0.00 | 0.00 | 0.00 | 42 | 1013.4 |
| 20260905001525 | 68 | 252 | 0.0 | 6.1 | 0.00 | 0.00 | 0.00 | 42 | 1013.3 |
| 20260905000025 | 69 | 355 | 0.9 | 5.2 | 0.00 | 0.00 | 0.00 | 41 | 1013.4 |
| 20260904234536 | 70 | 317 | 0.9 | 5.2 | 0.00 | 0.00 | 0.00 | 41 | 1013.4 |